User: anonymous   Login
Location: Unspecified
(0.0000°N, 0.0000°E)
Time: 14:46:19
(UTC+00:00)
Language:

CHUBUSAT 1 - Orbit

View from above orbital plane
View from above orbital plane
View from above satellite
View from above satellite

Ground track
Ground track

The orbit data is extracted from the following two-line orbital elements,

1 40300U 14070C   17202.89843350 +.00000995 +00000-0 +47937-4 0  9998
2 40300 097.3949 282.1571 0020176 344.6753 126.8422 15.20912407150062
Epoch (UTC): 21 July 2017 21:33:44
Eccentricity: 0.0020176
inclination: 97.3949°
perigee height: 489 km
apogee height: 517 km
right ascension of ascending node: 282.1571°
argument of perigee: 344.6753°
revolutions per day: 15.20912407
mean anomaly at epoch: 126.8422°
orbit number at epoch: 15006

The dashed part of the orbit path shows where the satellite is in the earth's shadow,  

DLR